This is the latest recevied weather packets stored in our database for station/object W3AJR. If no packets are shown the sender has not sent any weather packets the latest 10 day(s).
| Time | Temp. | Humidity | Pressure | Rain* | Wind** | Luminosity | Snow |
|---|---|---|---|---|---|---|---|
| 1777934813 | 23.33° C | 41% | 1009.4 hPa | 0 mm | - | 58 W/m² | - |
| 1777934510 | 23.33° C | 41% | 1009.5 hPa | 0 mm | - | 71 W/m² | - |
| 1777934207 | 23.33° C | 42% | 1009.5 hPa | 0 mm | - | 52 W/m² | - |
| 1777933902 | 23.33° C | 41% | 1009.6 hPa | 0 mm | - | 69 W/m² | - |
| 1777933600 | 23.33° C | 41% | 1009.6 hPa | 0 mm | - | 74 W/m² | - |
| 1777933297 | 23.33° C | 41% | 1009.5 hPa | 0 mm | - | 99 W/m² | - |
| 1777932994 | 23.33° C | 41% | 1009.6 hPa | 0 mm | - | 66 W/m² | - |
| 1777932691 | 23.89° C | 41% | 1009.5 hPa | 0 mm | - | 67 W/m² | - |
| 1777932387 | 23.33° C | 41% | 1009.2 hPa | 0 mm | - | 72 W/m² | - |
| 1777932085 | 23.33° C | 41% | 1009.5 hPa | 0 mm | - | 67 W/m² | - |
| 1777931781 | 23.89° C | 41% | 1009.5 hPa | 0 mm | - | 58 W/m² | - |
| 1777931479 | 23.89° C | 40% | 1009.4 hPa | 0 mm | - | 66 W/m² | - |
| 1777931174 | 23.89° C | 39% | 1009.5 hPa | 0 mm | - | 63 W/m² | - |
| 1777930871 | 23.89° C | 40% | 1009.2 hPa | 0 mm | - | 61 W/m² | - |
| 1777930567 | 23.89° C | 40% | 1009.4 hPa | 0 mm | - | 60 W/m² | - |
| 1777930264 | 23.89° C | 39% | 1009.2 hPa | 0 mm | - | 58 W/m² | - |
| 1777929960 | 23.89° C | 39% | 1009.5 hPa | 0 mm | - | 60 W/m² | - |
| 1777929658 | 23.89° C | 38% | 1009.5 hPa | 0 mm | - | 62 W/m² | - |
| 1777929355 | 23.89° C | 39% | 1009.3 hPa | 0 mm | - | 62 W/m² | - |
| 1777929051 | 24.44° C | 39% | 1009.2 hPa | 0 mm | - | 63 W/m² | - |
| 1777928749 | 24.44° C | 39% | 1009.3 hPa | 0 mm | - | 317 W/m² | - |
| 1777928445 | 24.44° C | 38% | 1009.1 hPa | 0 mm | - | 438 W/m² | - |
| 1777928143 | 24.44° C | 38% | 1009.4 hPa | 0 mm | - | 450 W/m² | - |
| 1777927841 | 23.89° C | 38% | 1009.1 hPa | 0 mm | - | 426 W/m² | - |
| 1777927538 | 24.44° C | 38% | 1009.4 hPa | 0 mm | - | 373 W/m² | - |
* Rain latest hour (hover to see other rain measurements)
** Current wind speed in m/s (hover to see current wind gust speed)